Main page
METAR-TAF:

METAR-TAF

Airports :

Hamedan, Iran

Hamedan International Airport

latitude: 34-52-05N, longitude: 048-33-08E, elevation: 1757 m

Current weather observation

The report was made 36 minutes ago, at 15:50 UTC
Wind 6 kt from variable directions
Temperature 2°C
Humidity 60%
Pressure 1024 hPa
Visibility 10 km or more
no clouds below 1500 m and no cumulonimbus

METAR: OIHH 181550Z VRB06KT CAVOK 02/M05 Q1024

Time: 19:56 (16:26 UTC)


TAF: missing

Weather observations and forecasts of more than 4000 airports (METAR and TAF reports).

The available stations are represented by yellow and red dots on the map.

Hover mouse over dot to see the name of the station.

Then click to see weather observations and forecasts.

To change the map : click on the green buttons with a black cross to zoom in, on the green button with a dash to zoom out, or on the green arrows for adjacent maps.


METAR-TAF: